sat.trackr.live / text

‹ back to catalog

STARLINK-35045

NORAD 65439 · 2025-194F

PAYLOAD ACTIVE UNKNOWN

§ Identity

Operator
Country
US
Launch date
2025-09-03
Launch site
AFWTR
Launch vehicle
Mass (kg)
RCS (m²)

Purposes: comms

External: N2YO · Heavens-Above · Gunter

§ Orbital elements

Epoch: 2026-05-25T03:34:16.775328Z

Period
95.64 min
Inclination
97.4476°
Eccentricity
0.0001436
Mean motion
15.05657423 rev/d
Perigee alt
548.5 km
Apogee alt
550.5 km
Semi-major
6,927.6 km
B*
2.1005e-4
RAAN
359.3925°
Arg perigee
82.2881°
Mean anomaly
277.8509°
Rev number
4,115

§ Raw data

STARLINK-350451 65439U 25194F   26145.14880527  .00002974  00000+0  21005-3 0  99932 65439  97.4476 359.3925 0001436  82.2881 277.8509 15.05657423 41152

JSON: /api/v1/satellites/65439 · /tle

For live sub-satellite position, see the globe view (requires WebGL).

§ Visibility from observer

Set your observer location to see the next 7 days of passes ≥ 10°. The values pass through the URL so the page stays shareable.

No JS? Fill the form by hand. The geolocation button needs JavaScript.